STARLINK-34364

导读 | 豆包AI

STARLINK-34364是美国SpaceX公司星链(Starlink)星座的第二代卫星,于2025年6月23日发射入轨,属于星链全球低轨互联网星座组网的一员。卫星配备增强型相控阵天线与激光星间链路,单星容量超100Gbps,可提供高速低时延的宽带接入服务。运行于近地轨道,具备自主避碰能力,退役后会再入大气层完全销毁,服务全球互联网覆盖,支撑星链民用通信与多元应用拓展。

Basic Information
目录编号:
64495
目录名称:
STARLINK-34364
国际标识:
2025-133Z
轨道中心:
EARTH
卫星名称:
STARLINK-34364
卫星全名:
STARLINK-34364
卫星状态:
在轨 (已飞行264 天)
发射日期:
2025-06-23 UTC
国别 :
美国 (US)
星等 :
--
Orbit Information
数据来源 国际轨道数据
星历时间: 2026-03-14T14:55:44+0800
10小时前
查看轨道信息
半长轴: 6853.36km
偏心率: 0.0001077
轨道倾角: 53.158°
近地点辐角 52.936°
升交点赤经 93.200°
平近点角 307.174°
近地点: 474.484km
远地点: 475.962km
周期: 94.105分钟
每日圈数: 15.301975
Detailed Information
使用方式:
暂无
2D Orbit Map
3D Orbit Map
Orbit Altitude Analysis Chart
Orbit Inclination Analysis Chart
Orbit Comprehensive Analysis Chart
View Comprehensive Chart